Retour au catalogue

FENGYUN 3G

ActifMétéoVLEO
NORAD 56232·PAYLOAD·🇨🇳 China

Lancé Apr 16, 2023 depuis Jiuquan Satellite Launch Center

Loading…

Prochains Passages (prochaines 24 heures)

TLE

FraisSource: Space-Track

Époque: Sep 14, 2026, 12:53 UTC

1 56232U 23055A   26257.53737190  .00019210  00000-0  30121-3 0  9993
2 56232  49.9912 245.3106 0011748  31.0968 329.0692 15.53599714193893

Suivez FENGYUN 3G en temps réel avec AllMySat

Download on the App Store